| time (UTC) | temp F | wind direction | speed MPH | gust MPH | rain 1hr in | rain 24hr in | rain mn in | humidity % | barometer mb |
| 20260506163123 | 59 | 11 | 3.0 | 9.0 | 0.00 | 0.00 | 0.00 | 85 | 1017.9 |
| 20260506162123 | 59 | 26 | 2.0 | 7.0 | 0.00 | 0.00 | 0.00 | 85 | 1017.7 |
| 20260506161124 | 60 | 9 | 2.0 | 8.0 | 0.00 | 0.00 | 0.00 | 85 | 1017.5 |
| 20260506160122 | 59 | 41 | 2.0 | 8.0 | 0.00 | 0.00 | 0.00 | 85 | 1017.5 |
| 20260506155123 | 59 | 62 | 2.0 | 9.0 | 0.00 | 0.00 | 0.00 | 85 | 1017.5 |
| 20260506154124 | 58 | 36 | 2.0 | 8.0 | 0.00 | 0.00 | 0.00 | 86 | 1017.5 |
| 20260506153123 | 59 | 45 | 2.0 | 8.0 | 0.00 | 0.00 | 0.00 | 86 | 1017.5 |
| 20260506152124 | 59 | 46 | 2.0 | 8.0 | 0.00 | 0.00 | 0.00 | 86 | 1017.8 |
| 20260506151122 | 59 | 29 | 1.0 | 7.0 | 0.00 | 0.00 | 0.00 | 86 | 1017.7 |
| 20260506150123 | 59 | 26 | 1.0 | 9.0 | 0.00 | 0.00 | 0.00 | 87 | 1017.4 |
| 20260506145124 | 58 | 38 | 2.0 | 8.0 | 0.00 | 0.00 | 0.00 | 87 | 1017.4 |
| 20260506144143 | 58 | 327 | 1.0 | 8.0 | 0.00 | 0.00 | 0.00 | 87 | 1017.6 |
| 20260506143144 | 58 | 288 | 1.0 | 5.0 | 0.00 | 0.00 | 0.00 | 87 | 1017.4 |
| 20260506142124 | 58 | 29 | 1.0 | 7.0 | 0.00 | 0.00 | 0.00 | 87 | 1017.2 |
| 20260506141124 | 58 | 126 | 1.0 | 8.0 | 0.00 | 0.00 | 0.00 | 88 | 1016.9 |
| 20260506140122 | 58 | 22 | 2.0 | 15.0 | 0.00 | 0.00 | 0.00 | 89 | 1016.8 |
| 20260506135124 | 58 | 345 | 2.0 | 9.0 | 0.00 | 0.00 | 0.00 | 89 | 1016.8 |
| 20260506134122 | 57 | 62 | 2.0 | 6.0 | 0.00 | 0.00 | 0.00 | 89 | 1016.7 |
| 20260506133143 | 57 | 69 | 1.0 | 11.0 | 0.00 | 0.00 | 0.00 | 91 | 1016.8 |
| 20260506132124 | 57 | 125 | 1.0 | 11.0 | 0.00 | 0.00 | 0.00 | 92 | 1016.4 |
| 20260506131122 | 57 | 158 | 0.0 | 4.0 | 0.00 | 0.00 | 0.00 | 92 | 1016.5 |
| 20260506130122 | 56 | 208 | 1.0 | 6.0 | 0.00 | 0.00 | 0.00 | 93 | 1016.2 |
| 20260506125124 | 56 | 276 | 0.0 | 3.0 | 0.00 | 0.00 | 0.00 | 95 | 1016.2 |
| 20260506124122 | 56 | 4 | 1.0 | 6.0 | 0.00 | 0.00 | 0.00 | 95 | 1016.5 |
| 20260506123123 | 56 | 279 | 0.0 | 3.0 | 0.00 | 0.00 | 0.00 | 95 | 1016.2 |
| 20260506122123 | 57 | 209 | 1.0 | 6.0 | 0.00 | 0.00 | 0.00 | 94 | 1016.1 |
| 20260506121129 | 56 | 180 | 0.0 | 4.0 | 0.00 | 0.00 | 0.00 | 94 | 1016.0 |
| 20260506121123 | 56 | 180 | 0.0 | 4.0 | 0.00 | 0.00 | 0.00 | 95 | 1016.0 |
| 20260506120122 | 56 | 180 | 0.0 | 3.0 | 0.00 | 0.00 | 0.00 | 94 | 1016.0 |
| 20260506115124 | 56 | 180 | 0.0 | 3.0 | 0.00 | 0.00 | 0.00 | 93 | 1016.0 |
| 20260506114124 | 57 | 180 | 0.0 | 4.0 | 0.00 | 0.00 | 0.00 | 93 | 1016.2 |
| 20260506113144 | 57 | 180 | 0.0 | 3.0 | 0.00 | 0.00 | 0.00 | 92 | 1016.0 |
| 20260506112124 | 57 | 180 | 0.0 | 3.0 | 0.00 | 0.00 | 0.00 | 92 | 1016.0 |
| 20260506111122 | 57 | 180 | 1.0 | 5.0 | 0.00 | 0.00 | 0.00 | 92 | 1015.7 |
| 20260506110122 | 57 | 180 | 0.0 | 4.0 | 0.00 | 0.00 | 0.00 | 92 | 1015.5 |
| 20260506105124 | 58 | 273 | 2.0 | 8.0 | 0.00 | 0.00 | 0.00 | 90 | 1015.5 |
| 20260506104143 | 58 | 234 | 2.0 | 9.0 | 0.00 | 0.00 | 0.00 | 91 | 1015.5 |
| 20260506103122 | 58 | 359 | 2.0 | 11.0 | 0.00 | 0.00 | 0.00 | 91 | 1015.2 |
| 20260506102124 | 56 | 88 | 2.0 | 7.0 | 0.00 | 0.00 | 0.00 | 95 | 1015.5 |
| 20260506101122 | 56 | 180 | 1.0 | 4.0 | 0.00 | 0.00 | 0.00 | 95 | 1015.4 |
| 20260506100123 | 56 | 180 | 0.0 | 3.0 | 0.00 | 0.00 | 0.00 | 95 | 1015.4 |
| 20260506095124 | 55 | 180 | 0.0 | 3.0 | 0.00 | 0.00 | 0.00 | 95 | 1015.4 |
| 20260506094124 | 55 | 180 | 0.0 | 0.0 | 0.00 | 0.00 | 0.00 | 95 | 1015.2 |
| 20260506093122 | 56 | 180 | 0.0 | 0.0 | 0.00 | 0.00 | 0.00 | 94 | 1015.0 |
| 20260506092124 | 56 | 180 | 0.0 | 0.0 | 0.00 | 0.00 | 0.00 | 94 | 1014.9 |
| 20260506091122 | 56 | 180 | 0.0 | 3.0 | 0.00 | 0.00 | 0.00 | 94 | 1014.8 |
| 20260506090122 | 56 | 180 | 0.0 | 2.0 | 0.00 | 0.00 | 0.00 | 94 | 1014.9 |
| 20260506085123 | 56 | 180 | 0.0 | 0.0 | 0.00 | 0.00 | 0.00 | 94 | 1014.9 |
| 20260506084122 | 56 | 180 | 0.0 | 0.0 | 0.00 | 0.00 | 0.00 | 94 | 1014.8 |
| 20260506083122 | 56 | 180 | 0.0 | 0.0 | 0.00 | 0.00 | 0.00 | 94 | 1014.7 |
| 20260506082124 | 56 | 180 | 0.0 | 0.0 | 0.00 | 0.00 | 0.00 | 94 | 1014.7 |
| 20260506081123 | 56 | 180 | 0.0 | 2.0 | 0.00 | 0.00 | 0.00 | 95 | 1014.7 |
| 20260506080122 | 56 | 180 | 0.0 | 2.0 | 0.00 | 0.00 | 0.00 | 95 | 1014.6 |
| 20260506073122 | 56 | 180 | 0.0 | 0.0 | 0.00 | 0.00 | 0.00 | 94 | 1014.5 |
| 20260506072123 | 56 | 180 | 0.0 | 2.0 | 0.00 | 0.00 | 0.00 | 94 | 1014.5 |
| 20260506071122 | 57 | 180 | 0.0 | 2.0 | 0.00 | 0.00 | 0.00 | 94 | 1014.2 |
| 20260506070124 | 56 | 180 | 0.0 | 0.0 | 0.00 | 0.00 | 0.00 | 94 | 1014.2 |
| 20260506062124 | 57 | 180 | 0.0 | 0.0 | 0.00 | 0.00 | 0.00 | 93 | 1014.0 |
| 20260506061122 | 57 | 180 | 0.0 | 0.0 | 0.00 | 0.00 | 0.00 | 93 | 1014.0 |
| 20260506060122 | 57 | 180 | 0.0 | 0.0 | 0.00 | 0.00 | 0.00 | 92 | 1013.9 |
| 20260506051143 | 58 | 180 | 0.0 | 0.0 | 0.00 | 0.00 | 0.00 | 89 | 1013.8 |
| 20260506050122 | 58 | 180 | 0.0 | 0.0 | 0.00 | 0.00 | 0.00 | 89 | 1013.7 |
| 20260506045124 | 58 | 180 | 0.0 | 0.0 | 0.00 | 0.00 | 0.00 | 88 | 1013.7 |
| 20260506044143 | 59 | 180 | 0.0 | 0.0 | 0.00 | 0.00 | 0.00 | 87 | 1013.6 |
| 20260506043124 | 60 | 180 | 0.0 | 0.0 | 0.00 | 0.00 | 0.00 | 86 | 1013.5 |
| 20260506042145 | 60 | 180 | 0.0 | 0.0 | 0.00 | 0.00 | 0.00 | 84 | 1013.5 |
| 20260506041122 | 61 | 180 | 0.0 | 0.0 | 0.00 | 0.00 | 0.00 | 82 | 1013.4 |
| 20260506040122 | 63 | 180 | 0.0 | 0.0 | 0.00 | 0.00 | 0.00 | 80 | 1013.2 |
| 20260506035123 | 64 | 180 | 0.0 | 0.0 | 0.00 | 0.00 | 0.00 | 77 | 1013.2 |
| 20260506034122 | 66 | 180 | 0.0 | 0.0 | 0.00 | 0.00 | 0.00 | 74 | 1013.2 |
| 20260506033122 | 68 | 180 | 0.0 | 0.0 | 0.00 | 0.00 | 0.00 | 72 | 1013.0 |
| 20260506032123 | 67 | 225 | 0.0 | 0.0 | 0.00 | 0.00 | 0.00 | 74 | 1013.0 |
| 20260506031124 | 65 | 270 | 0.0 | 2.0 | 0.00 | 0.00 | 0.00 | 78 | 1012.8 |
| 20260506030122 | 65 | 203 | 0.0 | 0.0 | 0.00 | 0.00 | 0.00 | 77 | 1012.7 |
| 20260506025124 | 65 | 227 | 0.0 | 3.0 | 0.00 | 0.00 | 0.00 | 77 | 1012.7 |
| 20260506024144 | 65 | 223 | 1.0 | 3.0 | 0.00 | 0.00 | 0.00 | 76 | 1012.8 |
| 20260506023122 | 66 | 221 | 2.0 | 4.0 | 0.00 | 0.00 | 0.00 | 76 | 1012.8 |
| 20260506022145 | 67 | 210 | 2.0 | 4.0 | 0.00 | 0.00 | 0.00 | 75 | 1012.8 |
| 20260506021122 | 67 | 223 | 2.0 | 6.0 | 0.00 | 0.00 | 0.00 | 74 | 1012.7 |
| 20260506020143 | 67 | 223 | 3.0 | 7.0 | 0.00 | 0.00 | 0.00 | 73 | 1012.7 |
| 20260506015123 | 68 | 224 | 2.0 | 5.0 | 0.00 | 0.00 | 0.00 | 72 | 1012.7 |
| 20260506014122 | 69 | 216 | 1.0 | 3.0 | 0.00 | 0.00 | 0.00 | 71 | 1012.8 |
| 20260506013122 | 70 | 238 | 1.0 | 4.0 | 0.00 | 0.00 | 0.00 | 69 | 1012.9 |
| 20260506012124 | 72 | 224 | 2.0 | 6.0 | 0.00 | 0.00 | 0.00 | 66 | 1012.9 |
| 20260506011122 | 70 | 233 | 2.0 | 5.0 | 0.00 | 0.00 | 0.00 | 68 | 1012.9 |
| 20260506010122 | 69 | 219 | 2.0 | 6.0 | 0.00 | 0.00 | 0.00 | 70 | 1012.9 |
| 20260506005124 | 69 | 218 | 3.0 | 8.0 | 0.00 | 0.00 | 0.00 | 72 | 1012.9 |
| 20260506004122 | 69 | 228 | 3.0 | 7.0 | 0.00 | 0.00 | 0.00 | 70 | 1013.0 |
| 20260506003122 | 70 | 240 | 2.0 | 5.0 | 0.00 | 0.00 | 0.00 | 68 | 1013.0 |
| 20260506002123 | 71 | 241 | 1.0 | 6.0 | 0.00 | 0.00 | 0.00 | 67 | 1013.0 |
| 20260506001122 | 71 | 306 | 1.0 | 4.0 | 0.00 | 0.00 | 0.00 | 67 | 1013.1 |
| 20260506000145 | 71 | 235 | 2.0 | 6.0 | 0.00 | 0.00 | 0.00 | 68 | 1013.1 |
| 20260505235123 | 71 | 344 | 1.0 | 3.0 | 0.00 | 0.00 | 0.00 | 67 | 1013.1 |
| 20260505234122 | 68 | 229 | 3.0 | 7.0 | 0.00 | 0.00 | 0.00 | 72 | 1013.2 |
| 20260505233145 | 69 | 224 | 2.0 | 5.0 | 0.00 | 0.00 | 0.00 | 70 | 1013.4 |
| 20260505232122 | 69 | 219 | 3.0 | 7.0 | 0.00 | 0.00 | 0.00 | 70 | 1013.4 |
| 20260505231143 | 69 | 239 | 2.0 | 4.0 | 0.00 | 0.00 | 0.00 | 70 | 1013.5 |
| 20260505230123 | 70 | 262 | 1.0 | 3.0 | 0.00 | 0.00 | 0.00 | 69 | 1013.7 |
| 20260505225144 | 70 | 273 | 1.0 | 4.0 | 0.00 | 0.00 | 0.00 | 70 | 1013.7 |
| 20260505224122 | 70 | 264 | 2.0 | 4.0 | 0.00 | 0.00 | 0.00 | 69 | 1013.8 |
| 20260505223122 | 69 | 251 | 2.0 | 8.0 | 0.00 | 0.00 | 0.00 | 71 | 1014.0 |
| 20260505222122 | 70 | 249 | 2.0 | 6.0 | 0.00 | 0.00 | 0.00 | 70 | 1014.0 |
| 20260505221124 | 69 | 261 | 2.0 | 5.0 | 0.00 | 0.00 | 0.00 | 70 | 1014.1 |
| 20260505220124 | 70 | 274 | 1.0 | 3.0 | 0.00 | 0.00 | 0.00 | 69 | 1014.1 |
| 20260505215122 | 69 | 258 | 2.0 | 6.0 | 0.00 | 0.00 | 0.00 | 70 | 1014.1 |
| 20260505214123 | 67 | 236 | 2.0 | 7.0 | 0.00 | 0.00 | 0.00 | 73 | 1014.2 |
| 20260505213123 | 68 | 265 | 1.0 | 4.0 | 0.00 | 0.00 | 0.00 | 72 | 1014.2 |
| 20260505212123 | 67 | 250 | 2.0 | 5.0 | 0.00 | 0.00 | 0.00 | 73 | 1014.2 |
| 20260505211122 | 67 | 248 | 2.0 | 4.0 | 0.00 | 0.00 | 0.00 | 74 | 1014.5 |
| 20260505210122 | 67 | 242 | 2.0 | 6.0 | 0.00 | 0.00 | 0.00 | 75 | 1014.4 |
| 20260505205124 | 67 | 249 | 1.0 | 5.0 | 0.00 | 0.00 | 0.00 | 74 | 1014.4 |
| 20260505204124 | 67 | 246 | 2.0 | 6.0 | 0.00 | 0.00 | 0.00 | 74 | 1014.5 |
| 20260505203124 | 66 | 241 | 3.0 | 9.0 | 0.00 | 0.00 | 0.00 | 76 | 1014.5 |
| 20260505202122 | 67 | 254 | 2.0 | 6.0 | 0.00 | 0.00 | 0.00 | 74 | 1014.5 |
| 20260505201143 | 65 | 258 | 2.0 | 8.0 | 0.00 | 0.00 | 0.00 | 76 | 1014.6 |
| 20260505200123 | 65 | 259 | 2.0 | 6.0 | 0.00 | 0.00 | 0.00 | 76 | 1014.6 |
| 20260505195124 | 66 | 262 | 1.0 | 7.0 | 0.00 | 0.00 | 0.00 | 76 | 1014.6 |
| 20260505194122 | 65 | 255 | 2.0 | 8.0 | 0.00 | 0.00 | 0.00 | 77 | 1014.6 |
| 20260505193143 | 66 | 266 | 2.0 | 8.0 | 0.00 | 0.00 | 0.00 | 76 | 1014.7 |
| 20260505192122 | 64 | 231 | 1.0 | 5.0 | 0.00 | 0.00 | 0.00 | 78 | 1014.6 |
| 20260505191122 | 64 | 246 | 2.0 | 6.0 | 0.00 | 0.00 | 0.00 | 78 | 1014.6 |
| 20260505190143 | 64 | 238 | 1.0 | 5.0 | 0.00 | 0.00 | 0.00 | 78 | 1014.5 |
| 20260505185124 | 64 | 251 | 1.0 | 4.0 | 0.00 | 0.00 | 0.00 | 77 | 1014.5 |
| 20260505184123 | 65 | 254 | 0.0 | 4.0 | 0.00 | 0.00 | 0.00 | 77 | 1014.5 |
| 20260505183143 | 64 | 240 | 0.0 | 4.0 | 0.00 | 0.00 | 0.00 | 78 | 1014.5 |
| 20260505182124 | 64 | 226 | 1.0 | 3.0 | 0.00 | 0.00 | 0.00 | 78 | 1014.4 |
| 20260505181122 | 63 | 205 | 1.0 | 4.0 | 0.00 | 0.00 | 0.00 | 79 | 1014.2 |
| 20260505180122 | 64 | 202 | 1.0 | 3.0 | 0.00 | 0.00 | 0.00 | 79 | 1014.4 |
| 20260505175123 | 65 | 202 | 0.0 | 4.0 | 0.00 | 0.00 | 0.00 | 76 | 1014.4 |
| 20260505174143 | 65 | 202 | 0.0 | 3.0 | 0.00 | 0.00 | 0.00 | 76 | 1014.4 |
| 20260505173122 | 64 | 202 | 0.0 | 3.0 | 0.00 | 0.00 | 0.00 | 76 | 1014.4 |
| 20260505172144 | 63 | 202 | 0.0 | 3.0 | 0.00 | 0.00 | 0.00 | 76 | 1014.2 |
| 20260505171122 | 63 | 202 | 0.0 | 3.0 | 0.00 | 0.00 | 0.00 | 76 | 1014.4 |
| 20260505170122 | 63 | 202 | 0.0 | 3.0 | 0.00 | 0.00 | 0.00 | 76 | 1014.2 |
| 20260505165123 | 63 | 202 | 1.0 | 4.0 | 0.00 | 0.00 | 0.00 | 76 | 1014.2 |
| 20260505164122 | 63 | 202 | 0.0 | 4.0 | 0.00 | 0.00 | 0.00 | 75 | 1014.2 |